[[{"header":{"parameterUnit":"m.s-1","parameterCategory":1,"la1":30.2992,"la2":30.254,"lo1":-89.0895,"lo2":-89.0443,"dy":0.0025,"dx":0.0025,"nx":19,"ny":19,"refTime":"2026-05-01T09:00:00:Z","depth":0,"parameterNumber":2,"parameterNumberName":"U-component_of_WINDS"},"data":[0,0,0,-2.9664,-2.9665,-2.9706,-2.9706,-2.9789,-2.979,0,0,0,0,0,0,0,0,0,0,0,-2.9672,-2.9673,-2.9664,-2.9665,-2.9706,-2.9706,-2.9789,-2.979,0,0,0,0,0,0,0,0,0,0,0,-2.9671,-2.9673,-2.9674,-2.9666,-2.9706,-2.9706,-2.9789,-2.9747,0,0,0,0,0,0,0,0,0,0,-2.9703,-2.9729,-2.9672,-2.9674,-2.9666,-2.9706,-2.9706,-2.9745,-2.975,-2.9785,0,-2.9822,0,-2.9807,-2.9798,-2.9799,0,0,0,-2.9651,-2.9725,-2.9718,-2.9675,-2.9667,-2.9706,-2.9683,-2.9747,-2.9753,-2.9792,-2.9823,-2.9825,-2.9809,-2.9799,-2.9799,-3.0048,-3.005,0,0,-2.9649,-2.969,-2.9714,-2.9723,-2.9718,-2.9682,-2.9685,-2.975,-2.9786,-2.9823,-2.9826,-2.981,-2.98,-2.98,-3.0047,-3.0049,0,0,0,-2.9652,-2.9689,-2.9679,-2.972,-2.9725,-2.9684,-2.9687,-2.9783,-2.9777,-2.9827,-2.9811,-2.98,-2.9802,-3.0045,-3.0048,-3.0177,0,0,0,-2.965,-2.9691,-2.9679,-2.9705,-2.9724,-2.9755,-2.9719,-2.9772,-2.9778,-2.9811,-2.98,-2.9803,-3.0043,-3.0046,-3.0169,-3.0231,0,0,0,-2.9663,-2.9692,-2.9705,-2.9707,-2.9726,-2.9753,-2.9749,-2.9772,-2.977,-2.9799,-2.9803,-3.0041,-3.0045,-3.0162,-3.0219,-3.0307,0,0,0,-2.9688,-2.9822,-2.9708,-2.985,-2.9726,-2.9832,-2.9748,-2.9826,-2.9867,-2.9801,-3.0043,-3.0047,-3.0159,-3.0212,-3.0299,-3.0387,-3.0427,0,0,-2.9879,-2.9846,-2.9926,-2.9825,-2.9963,-2.9823,-2.9979,-2.9978,-2.9944,-3.0016,-3.0021,-3.0171,-3.0218,-3.0305,-3.0643,-3.0676,0,0,0,-3.0001,-3.0059,-3.0086,-3.0126,-3.0127,-3.0132,-3.0103,-3.0102,-3.016,-2.9989,-3.0226,-3.0253,-3.0302,-3.0342,-3.0369,-3.0408,-3.0068,-3.0067,-3.0067,-3.0332,-3.0278,-3.0407,-3.0358,-3.0398,-3.0364,-3.039,-3.0383,-3.0321,-3.0377,-3.0398,-3.061,-3.0658,-3.0678,-3.0719,-3.0441,-3.0442,-3.0442,-3.0442,-3.0606,-3.0679,-3.0588,-3.0681,-3.0624,-3.0701,-3.0673,-3.0625,-3.0688,-3.059,-3.0631,-3.0527,-3.0716,-3.0748,-3.0452,-3.045,-3.0449,-3.0448,-3.0447,-3.0815,-3.0841,-3.0836,-3.0884,-3.0928,-3.0874,-3.0938,-3.0884,-3.0835,-3.0875,-3.0889,-3.0887,-3.0876,-3.0886,-3.0887,-3.0887,-3.0888,-3.0888,-3.0889,-3.1034,-3.1024,-3.1084,-3.1093,-3.1109,-3.1124,-3.109,-3.1105,-3.1108,-3.1064,-3.1063,-3.0994,-3.0744,-3.0682,-3.09,-3.0898,-3.0897,-3.0896,-3.0895,-3.133,-3.1253,-3.1346,-3.1362,-3.1366,-3.1412,-3.1342,-3.1376,-3.1381,-3.1413,-3.1334,-3.1159,-3.1122,-3.1099,-3.1047,-3.1347,-3.1347,-3.1347,-3.1347,-3.1506,-3.1481,-3.156,-3.1589,-3.1611,-3.1556,-3.166,-3.1634,-3.1595,-3.1594,-3.1543,-3.147,-3.1449,-3.1424,-3.1394,-3.1344,-3.1713,-3.1713,-3.1714,-3.1683,-3.1657,-3.1756,-3.1715,-3.1714,-3.1714,-3.181,-3.1846,-3.1787,-3.1727,-3.1592,-3.1576,-3.1457,-3.1421,-3.1359,-3.1314,-3.1222,0,0]},{"header":{"parameterUnit":"m.s-1","parameterCategory":1,"la1":30.2992,"la2":30.254,"lo1":-89.0895,"lo2":-89.0443,"dy":0.0025,"dx":0.0025,"nx":19,"ny":19,"refTime":"2026-05-01T09:00:00:Z","depth":0,"parameterNumber":3,"parameterNumberName":"V-component_of_WINDS"},"data":[0,0,0,-2.355,-2.3548,-2.3432,-2.3432,-2.3288,-2.3287,0,0,0,0,0,0,0,0,0,0,0,-2.3592,-2.3592,-2.355,-2.3548,-2.3432,-2.3432,-2.3289,-2.3287,0,0,0,0,0,0,0,0,0,0,0,-2.3592,-2.3592,-2.3591,-2.3547,-2.3432,-2.3432,-2.3289,-2.3373,0,0,0,0,0,0,0,0,0,0,-2.3484,-2.3532,-2.3592,-2.3591,-2.3547,-2.3433,-2.3432,-2.3377,-2.3368,-2.3344,0,-2.333,0,-2.3306,-2.3278,-2.3278,0,0,0,-2.354,-2.354,-2.3502,-2.3591,-2.3546,-2.3433,-2.3482,-2.3372,-2.3361,-2.3332,-2.3327,-2.3322,-2.3304,-2.3277,-2.3277,-2.317,-2.317,0,0,-2.3547,-2.3575,-2.3509,-2.3496,-2.352,-2.3486,-2.3479,-2.3365,-2.3361,-2.3327,-2.3318,-2.3302,-2.3277,-2.3276,-2.317,-2.317,0,0,0,-2.357,-2.358,-2.3544,-2.3502,-2.3481,-2.3483,-2.3475,-2.3366,-2.3352,-2.3317,-2.33,-2.3276,-2.3274,-2.3171,-2.317,-2.3189,0,0,0,-2.3573,-2.3593,-2.3547,-2.3563,-2.3484,-2.3423,-2.3478,-2.336,-2.3346,-2.3301,-2.3276,-2.3273,-2.3171,-2.317,-2.3189,-2.3192,0,0,0,-2.3597,-2.3596,-2.3582,-2.3565,-2.3517,-2.3424,-2.3404,-2.3356,-2.3336,-2.3278,-2.3273,-2.3171,-2.317,-2.3189,-2.3192,-2.317,0,0,0,-2.3629,-2.3602,-2.3583,-2.3544,-2.3518,-2.3439,-2.3404,-2.3343,-2.3295,-2.3275,-2.3171,-2.317,-2.3189,-2.3192,-2.317,-2.3155,-2.3152,0,0,-2.361,-2.36,-2.3575,-2.3555,-2.3486,-2.3454,-2.3385,-2.3314,-2.3281,-2.3207,-2.3204,-2.3189,-2.3192,-2.317,-2.3131,-2.3129,0,0,0,-2.3578,-2.356,-2.3535,-2.3493,-2.3438,-2.3389,-2.3326,-2.3298,-2.3234,-2.3251,-2.3175,-2.3176,-2.3161,-2.3153,-2.3151,-2.3134,-2.3168,-2.3168,-2.3168,-2.3591,-2.355,-2.3504,-2.3449,-2.3407,-2.3339,-2.3299,-2.3249,-2.3222,-2.3203,-2.3181,-2.3163,-2.3154,-2.3153,-2.3136,-2.3172,-2.3172,-2.3172,-2.3172,-2.3556,-2.3523,-2.3484,-2.3426,-2.338,-2.3329,-2.3259,-2.324,-2.3182,-2.3178,-2.3163,-2.3161,-2.3152,-2.3135,-2.3173,-2.3173,-2.3173,-2.3172,-2.3172,-2.3559,-2.3535,-2.3503,-2.3432,-2.3381,-2.3323,-2.3268,-2.3229,-2.3192,-2.3177,-2.3146,-2.3146,-2.3137,-2.3166,-2.3166,-2.3165,-2.3165,-2.3165,-2.3165,-2.3574,-2.3536,-2.3497,-2.3433,-2.3397,-2.3344,-2.3271,-2.3233,-2.3179,-2.3154,-2.3154,-2.3124,-2.316,-2.3169,-2.3164,-2.3164,-2.3164,-2.3165,-2.3165,-2.3552,-2.3549,-2.3489,-2.3453,-2.337,-2.3318,-2.3268,-2.3192,-2.3154,-2.3126,-2.3098,-2.3132,-2.3119,-2.312,-2.3126,-2.311,-2.311,-2.311,-2.311,-2.3553,-2.3542,-2.3468,-2.3411,-2.3351,-2.3298,-2.3222,-2.3162,-2.3098,-2.307,-2.3067,-2.3072,-2.3075,-2.3059,-2.3062,-2.3067,-2.3036,-2.3036,-2.3036,-2.3534,-2.3515,-2.3462,-2.3403,-2.3334,-2.3274,-2.3199,-2.313,-2.3057,-2.3032,-2.3046,-2.3049,-2.3058,-2.3063,-2.304,-2.3044,-2.3053,0,0]}]]